| time (UTC) | temp C | wind direction | speed KPH | gust KPH | rain 1hr cm | rain 24hr cm | rain mn cm | humidity % | barometer mb |
| 20260509090523 | 4 | 133 | 0.0 | 0.0 | 0.00 | 0.08 | 0.00 | 86 | 1008.1 |
| 20260509090046 | 4 | 133 | 0.0 | 0.0 | 0.00 | 0.08 | 0.00 | 86 | 1008.2 |
| 20260509085536 | 4 | 133 | 0.0 | 0.0 | 0.00 | 0.08 | 0.00 | 86 | 1008.2 |
| 20260509085036 | 4 | 133 | 0.0 | 0.0 | 0.00 | 0.08 | 0.00 | 86 | 1008.3 |
| 20260509084528 | 4 | 133 | 0.0 | 4.8 | 0.00 | 0.08 | 0.00 | 86 | 1008.2 |
| 20260509084033 | 4 | 133 | 1.6 | 4.8 | 0.00 | 0.08 | 0.00 | 86 | 1008.3 |
| 20260509083529 | 3 | 136 | 1.6 | 3.2 | 0.00 | 0.08 | 0.00 | 86 | 1008.3 |
| 20260509083049 | 4 | 136 | 0.0 | 0.0 | 0.00 | 0.08 | 0.00 | 85 | 1008.5 |
| 20260509082518 | 3 | 136 | 0.0 | 0.0 | 0.00 | 0.08 | 0.00 | 85 | 1008.6 |
| 20260509082036 | 3 | 136 | 0.0 | 0.0 | 0.00 | 0.08 | 0.00 | 85 | 1008.7 |
| 20260509081532 | 3 | 136 | 0.0 | 0.0 | 0.00 | 0.08 | 0.00 | 85 | 1008.6 |
| 20260509081043 | 3 | 136 | 0.0 | 0.0 | 0.00 | 0.08 | 0.00 | 85 | 1008.6 |
| 20260509080541 | 3 | 136 | 0.0 | 3.2 | 0.00 | 0.08 | 0.00 | 84 | 1008.7 |
| 20260509080034 | 3 | 136 | 0.0 | 4.8 | 0.00 | 0.08 | 0.00 | 84 | 1008.8 |
| 20260509075536 | 3 | 136 | 3.2 | 4.8 | 0.00 | 0.08 | 0.00 | 84 | 1008.7 |
| 20260509075021 | 3 | 136 | 0.0 | 1.6 | 0.00 | 0.08 | 0.00 | 83 | 1008.7 |
| 20260509074529 | 4 | 136 | 0.0 | 0.0 | 0.00 | 0.08 | 0.00 | 82 | 1008.8 |
| 20260509074056 | 4 | 136 | 0.0 | 0.0 | 0.00 | 0.08 | 0.00 | 82 | 1008.8 |
| 20260509073528 | 4 | 136 | 0.0 | 0.0 | 0.00 | 0.08 | 0.00 | 82 | 1008.9 |
| 20260509073029 | 4 | 136 | 0.0 | 0.0 | 0.00 | 0.08 | 0.00 | 81 | 1008.9 |
| 20260509072518 | 4 | 136 | 0.0 | 0.0 | 0.00 | 0.08 | 0.00 | 81 | 1008.9 |
| 20260509072039 | 4 | 136 | 0.0 | 0.0 | 0.00 | 0.08 | 0.00 | 81 | 1008.9 |
| 20260509071522 | 5 | 136 | 0.0 | 0.0 | 0.00 | 0.08 | 0.00 | 80 | 1009.0 |
| 20260509071026 | 5 | 136 | 0.0 | 0.0 | 0.00 | 0.08 | 0.00 | 80 | 1009.0 |
| 20260509070522 | 5 | 136 | 0.0 | 0.0 | 0.00 | 0.08 | 0.00 | 80 | 1009.1 |
| 20260509070027 | 5 | 136 | 0.0 | 0.0 | 0.00 | 0.08 | 0.00 | 79 | 1009.1 |
| 20260509065543 | 5 | 136 | 0.0 | 0.0 | 0.00 | 0.08 | 0.00 | 78 | 1009.1 |
| 20260509065046 | 5 | 136 | 0.0 | 0.0 | 0.00 | 0.08 | 0.00 | 78 | 1009.2 |
| 20260509064517 | 5 | 136 | 0.0 | 0.0 | 0.00 | 0.08 | 0.00 | 78 | 1009.3 |
| 20260509064039 | 5 | 136 | 0.0 | 0.0 | 0.00 | 0.08 | 0.00 | 77 | 1009.4 |
| 20260509063516 | 6 | 136 | 0.0 | 0.0 | 0.00 | 0.08 | 0.00 | 77 | 1009.3 |
| 20260509063037 | 6 | 136 | 0.0 | 0.0 | 0.00 | 0.08 | 0.00 | 77 | 1009.4 |
| 20260509062529 | 6 | 136 | 0.0 | 4.8 | 0.00 | 0.08 | 0.00 | 77 | 1009.4 |
| 20260509062031 | 6 | 136 | 1.6 | 4.8 | 0.00 | 0.08 | 0.00 | 77 | 1009.5 |
| 20260509061524 | 6 | 138 | 0.0 | 8.0 | 0.00 | 0.08 | 0.00 | 77 | 1009.5 |
| 20260509061029 | 5 | 138 | 1.6 | 8.0 | 0.00 | 0.08 | 0.00 | 78 | 1009.5 |
| 20260509060535 | 5 | 142 | 0.0 | 4.8 | 0.00 | 0.08 | 0.00 | 79 | 1009.6 |
| 20260509060056 | 5 | 144 | 1.6 | 4.8 | 0.00 | 0.08 | 0.00 | 80 | 1009.7 |
| 20260509055543 | 5 | 145 | 1.6 | 4.8 | 0.00 | 0.08 | 0.00 | 81 | 1009.7 |
| 20260509055033 | 5 | 145 | 3.2 | 4.8 | 0.00 | 0.08 | 0.00 | 83 | 1009.7 |
| 20260509054559 | 5 | 145 | 1.6 | 6.4 | 0.00 | 0.08 | 0.00 | 84 | 1009.8 |
| 20260509054025 | 4 | 130 | 1.6 | 4.8 | 0.00 | 0.08 | 0.00 | 85 | 1009.9 |
| 20260509053516 | 4 | 130 | 1.6 | 4.8 | 0.00 | 0.08 | 0.00 | 85 | 1010.0 |
| 20260509053031 | 4 | 130 | 0.0 | 0.0 | 0.00 | 0.08 | 0.00 | 85 | 1010.1 |
| 20260509052525 | 4 | 130 | 0.0 | 0.0 | 0.00 | 0.08 | 0.00 | 85 | 1010.1 |
| 20260509052033 | 4 | 130 | 0.0 | 0.0 | 0.00 | 0.08 | 0.00 | 85 | 1010.1 |
| 20260509051522 | 4 | 129 | 0.0 | 0.0 | 0.00 | 0.08 | 0.00 | 85 | 1010.2 |
| 20260509051030 | 4 | 129 | 0.0 | 0.0 | 0.00 | 0.08 | 0.00 | 85 | 1010.2 |
| 20260509050557 | 4 | 129 | 0.0 | 0.0 | 0.00 | 0.08 | 0.00 | 84 | 1010.3 |
| 20260509050026 | 4 | 129 | 0.0 | 0.0 | 0.00 | 0.08 | 0.00 | 84 | 1010.3 |
| 20260509045553 | 4 | 129 | 0.0 | 0.0 | 0.00 | 0.13 | 0.00 | 84 | 1010.3 |
| 20260509045041 | 4 | 129 | 0.0 | 0.0 | 0.00 | 0.13 | 0.00 | 83 | 1010.4 |
| 20260509044606 | 4 | 129 | 0.0 | 0.0 | 0.00 | 0.13 | 0.00 | 83 | 1010.4 |
| 20260509044022 | 4 | 129 | 0.0 | 0.0 | 0.00 | 0.13 | 0.00 | 83 | 1010.5 |
| 20260509043541 | 4 | 129 | 0.0 | 0.0 | 0.00 | 0.13 | 0.00 | 82 | 1010.6 |
| 20260509043042 | 4 | 129 | 0.0 | 0.0 | 0.00 | 0.13 | 0.00 | 82 | 1010.7 |
| 20260509042516 | 5 | 129 | 0.0 | 0.0 | 0.00 | 0.13 | 0.00 | 82 | 1010.7 |
| 20260509042019 | 5 | 129 | 0.0 | 0.0 | 0.00 | 0.13 | 0.00 | 82 | 1010.6 |
| 20260509041534 | 5 | 129 | 0.0 | 0.0 | 0.00 | 0.13 | 0.00 | 81 | 1010.6 |
| 20260509041052 | 5 | 129 | 0.0 | 0.0 | 0.00 | 0.13 | 0.00 | 79 | 1010.5 |
| 20260509040521 | 5 | 129 | 0.0 | 0.0 | 0.00 | 0.13 | 0.00 | 79 | 1010.6 |
| 20260509040036 | 5 | 129 | 0.0 | 0.0 | 0.00 | 0.13 | 0.00 | 79 | 1010.6 |
| 20260509035514 | 5 | 129 | 0.0 | 0.0 | 0.00 | 0.13 | 0.13 | 79 | 1010.7 |
| 20260509035047 | 5 | 129 | 0.0 | 0.0 | 0.00 | 0.13 | 0.13 | 78 | 1010.6 |
| 20260509034523 | 5 | 129 | 0.0 | 0.0 | 0.00 | 0.13 | 0.13 | 78 | 1010.6 |
| 20260509034036 | 5 | 129 | 0.0 | 0.0 | 0.00 | 0.13 | 0.13 | 79 | 1010.6 |
| 20260509033530 | 5 | 129 | 0.0 | 0.0 | 0.00 | 0.13 | 0.13 | 79 | 1010.6 |
| 20260509033020 | 5 | 129 | 0.0 | 0.0 | 0.00 | 0.13 | 0.13 | 78 | 1010.6 |
| 20260509032535 | 5 | 129 | 0.0 | 0.0 | 0.00 | 0.13 | 0.13 | 78 | 1010.6 |
| 20260509032019 | 6 | 129 | 0.0 | 0.0 | 0.00 | 0.13 | 0.13 | 78 | 1010.7 |
| 20260509031531 | 6 | 129 | 0.0 | 0.0 | 0.00 | 0.13 | 0.13 | 78 | 1010.6 |
| 20260509031021 | 6 | 129 | 0.0 | 0.0 | 0.00 | 0.13 | 0.13 | 78 | 1010.7 |
| 20260509030531 | 6 | 129 | 0.0 | 0.0 | 0.00 | 0.13 | 0.13 | 78 | 1010.8 |
| 20260509030020 | 6 | 129 | 0.0 | 0.0 | 0.00 | 0.13 | 0.13 | 78 | 1010.8 |
| 20260509025539 | 6 | 129 | 0.0 | 0.0 | 0.00 | 0.13 | 0.13 | 78 | 1010.7 |
| 20260509025040 | 6 | 129 | 0.0 | 0.0 | 0.00 | 0.13 | 0.13 | 77 | 1010.7 |
| 20260509024546 | 6 | 129 | 0.0 | 0.0 | 0.00 | 0.13 | 0.13 | 76 | 1010.8 |
| 20260509024039 | 6 | 129 | 0.0 | 0.0 | 0.00 | 0.13 | 0.13 | 76 | 1010.7 |
| 20260509023528 | 7 | 129 | 0.0 | 0.0 | 0.00 | 0.13 | 0.13 | 76 | 1010.8 |
| 20260509023033 | 7 | 129 | 0.0 | 1.6 | 0.00 | 0.13 | 0.13 | 75 | 1010.8 |
| 20260509022518 | 7 | 129 | 0.0 | 6.4 | 0.00 | 0.13 | 0.13 | 73 | 1010.8 |
| 20260509022015 | 7 | 129 | 3.2 | 6.4 | 0.00 | 0.13 | 0.13 | 71 | 1010.8 |
| 20260509021537 | 7 | 128 | 3.2 | 6.4 | 0.00 | 0.13 | 0.13 | 71 | 1010.8 |
| 20260509021028 | 7 | 119 | 4.8 | 6.4 | 0.00 | 0.13 | 0.13 | 71 | 1010.8 |
| 20260509020517 | 7 | 96 | 0.0 | 0.0 | 0.00 | 0.13 | 0.13 | 71 | 1010.8 |
| 20260509020023 | 8 | 96 | 0.0 | 0.0 | 0.00 | 0.13 | 0.13 | 70 | 1010.8 |
| 20260509015526 | 8 | 96 | 0.0 | 0.0 | 0.00 | 0.13 | 0.13 | 68 | 1010.8 |
| 20260509015029 | 8 | 96 | 0.0 | 0.0 | 0.00 | 0.13 | 0.13 | 68 | 1010.8 |
| 20260509014520 | 8 | 96 | 0.0 | 0.0 | 0.00 | 0.13 | 0.13 | 67 | 1010.8 |
| 20260509014042 | 8 | 96 | 0.0 | 0.0 | 0.00 | 0.13 | 0.13 | 65 | 1010.8 |
| 20260509013539 | 8 | 96 | 0.0 | 0.0 | 0.00 | 0.13 | 0.13 | 65 | 1010.8 |
| 20260509013028 | 9 | 96 | 0.0 | 0.0 | 0.00 | 0.13 | 0.13 | 65 | 1010.7 |
| 20260509012543 | 9 | 96 | 0.0 | 0.0 | 0.00 | 0.13 | 0.13 | 64 | 1010.6 |
| 20260509012024 | 9 | 88 | 0.0 | 0.0 | 0.00 | 0.13 | 0.13 | 63 | 1010.5 |
| 20260509011523 | 9 | 87 | 0.0 | 0.0 | 0.00 | 0.13 | 0.13 | 63 | 1010.5 |
| 20260509011035 | 10 | 86 | 0.0 | 0.0 | 0.00 | 0.13 | 0.13 | 62 | 1010.4 |
| 20260509010541 | 10 | 71 | 0.0 | 0.0 | 0.00 | 0.13 | 0.13 | 61 | 1010.4 |
| 20260509010028 | 10 | 45 | 0.0 | 0.0 | 0.00 | 0.13 | 0.13 | 60 | 1010.3 |
| 20260509005538 | 10 | 45 | 0.0 | 3.2 | 0.00 | 0.13 | 0.13 | 60 | 1010.2 |
| 20260509005036 | 10 | 45 | 1.6 | 3.2 | 0.00 | 0.13 | 0.13 | 59 | 1010.1 |
| 20260509004546 | 10 | 45 | 0.0 | 0.0 | 0.00 | 0.13 | 0.13 | 58 | 1010.0 |
| 20260509004019 | 11 | 45 | 0.0 | 0.0 | 0.00 | 0.13 | 0.13 | 58 | 1010.0 |
| 20260509003544 | 11 | 45 | 0.0 | 3.2 | 0.00 | 0.13 | 0.13 | 57 | 1010.0 |
| 20260509003021 | 11 | 45 | 0.0 | 3.2 | 0.00 | 0.13 | 0.13 | 56 | 1009.9 |
| 20260509002527 | 11 | 45 | 0.0 | 0.0 | 0.00 | 0.13 | 0.13 | 55 | 1009.9 |
| 20260509002014 | 11 | 45 | 0.0 | 0.0 | 0.00 | 0.13 | 0.13 | 54 | 1009.9 |
| 20260509001522 | 11 | 45 | 0.0 | 1.6 | 0.00 | 0.13 | 0.13 | 53 | 1009.9 |
| 20260509001028 | 11 | 40 | 0.0 | 4.8 | 0.00 | 0.13 | 0.13 | 54 | 1009.8 |
| 20260509000520 | 12 | 34 | 1.6 | 4.8 | 0.00 | 0.13 | 0.13 | 52 | 1009.8 |
| 20260509000024 | 12 | 34 | 0.0 | 1.6 | 0.00 | 0.13 | 0.13 | 53 | 1009.8 |
| 20260508235520 | 12 | 9 | 0.0 | 0.0 | 0.00 | 0.13 | 0.13 | 50 | 1009.8 |
| 20260508235033 | 12 | 9 | 0.0 | 0.0 | 0.00 | 0.13 | 0.13 | 50 | 1009.7 |
| 20260508234545 | 12 | 360 | 0.0 | 0.0 | 0.00 | 0.13 | 0.13 | 49 | 1009.7 |
| 20260508234045 | 12 | 360 | 0.0 | 0.0 | 0.00 | 0.13 | 0.13 | 49 | 1009.6 |
| 20260508233518 | 12 | 360 | 0.0 | 6.4 | 0.00 | 0.13 | 0.13 | 49 | 1009.6 |
| 20260508233023 | 12 | 24 | 3.2 | 6.4 | 0.00 | 0.13 | 0.13 | 49 | 1009.6 |
| 20260508232550 | 13 | 25 | 4.8 | 6.4 | 0.00 | 0.13 | 0.13 | 49 | 1009.6 |
| 20260508232048 | 13 | 360 | 3.2 | 6.4 | 0.00 | 0.13 | 0.13 | 47 | 1009.6 |
| 20260508231522 | 13 | 19 | 3.2 | 6.4 | 0.00 | 0.13 | 0.13 | 48 | 1009.6 |
| 20260508231042 | 13 | 341 | 4.8 | 6.4 | 0.00 | 0.13 | 0.13 | 47 | 1009.6 |
| 20260508230540 | 13 | 340 | 3.2 | 4.8 | 0.00 | 0.13 | 0.13 | 45 | 1009.6 |
| 20260508230043 | 13 | 342 | 0.0 | 0.0 | 0.00 | 0.13 | 0.13 | 44 | 1009.6 |
| 20260508225524 | 13 | 342 | 0.0 | 6.4 | 0.00 | 0.13 | 0.13 | 44 | 1009.6 |
| 20260508225035 | 13 | 342 | 1.6 | 6.4 | 0.00 | 0.13 | 0.13 | 44 | 1009.7 |
| 20260508224546 | 13 | 348 | 1.6 | 8.0 | 0.00 | 0.13 | 0.13 | 44 | 1009.6 |
| 20260508224023 | 13 | 345 | 3.2 | 6.4 | 0.00 | 0.13 | 0.13 | 46 | 1009.6 |
| 20260508223522 | 13 | 42 | 0.0 | 11.3 | 0.00 | 0.13 | 0.13 | 44 | 1009.5 |
| 20260508223018 | 13 | 42 | 4.8 | 11.3 | 0.00 | 0.13 | 0.13 | 44 | 1009.6 |
| 20260508222517 | 13 | 35 | 3.2 | 12.9 | 0.00 | 0.13 | 0.13 | 45 | 1009.5 |
| 20260508222037 | 14 | 25 | 8.0 | 12.9 | 0.00 | 0.13 | 0.13 | 47 | 1009.6 |
| 20260508221539 | 14 | 5 | 4.8 | 8.0 | 0.00 | 0.13 | 0.13 | 46 | 1009.6 |
| 20260508221043 | 14 | 229 | 0.0 | 8.0 | 0.00 | 0.13 | 0.13 | 43 | 1009.6 |
| 20260508220530 | 14 | 273 | 1.6 | 9.7 | 0.00 | 0.13 | 0.13 | 44 | 1009.6 |
| 20260508220018 | 14 | 355 | 6.4 | 9.7 | 0.00 | 0.13 | 0.13 | 44 | 1009.6 |
| 20260508215517 | 13 | 336 | 1.6 | 12.9 | 0.00 | 0.13 | 0.13 | 45 | 1009.7 |
| 20260508215024 | 13 | 5 | 4.8 | 12.9 | 0.00 | 0.13 | 0.13 | 47 | 1009.7 |
| 20260508214523 | 14 | 335 | 4.8 | 16.1 | 0.00 | 0.13 | 0.13 | 45 | 1009.7 |
| 20260508214025 | 14 | 337 | 8.0 | 16.1 | 0.00 | 0.13 | 0.13 | 45 | 1009.6 |
| 20260508213517 | 14 | 14 | 4.8 | 9.7 | 0.00 | 0.13 | 0.13 | 41 | 1009.7 |
| 20260508213031 | 14 | 241 | 3.2 | 9.7 | 0.00 | 0.13 | 0.13 | 43 | 1009.8 |
| 20260508212541 | 13 | 333 | 1.6 | 12.9 | 0.00 | 0.13 | 0.13 | 44 | 1009.8 |
| 20260508212031 | 13 | 261 | 6.4 | 12.9 | 0.00 | 0.13 | 0.13 | 42 | 1009.9 |
| 20260508211534 | 13 | 342 | 4.8 | 9.7 | 0.00 | 0.13 | 0.13 | 45 | 1009.9 |
| 20260508211029 | 13 | 275 | 1.6 | 6.4 | 0.00 | 0.13 | 0.13 | 43 | 1009.8 |
| 20260508210525 | 13 | 340 | 1.6 | 6.4 | 0.00 | 0.13 | 0.13 | 42 | 1009.8 |
| 20260508210033 | 13 | 202 | 3.2 | 6.4 | 0.00 | 0.13 | 0.13 | 46 | 1009.8 |
| 20260508205540 | 13 | 218 | 0.0 | 6.4 | 0.00 | 0.13 | 0.13 | 43 | 1009.9 |
| 20260508205023 | 13 | 280 | 3.2 | 9.7 | 0.00 | 0.13 | 0.13 | 42 | 1010.0 |
| 20260508204546 | 13 | 275 | 3.2 | 11.3 | 0.00 | 0.13 | 0.13 | 45 | 1010.0 |
| 20260508204015 | 13 | 221 | 4.8 | 11.3 | 0.00 | 0.13 | 0.13 | 40 | 1010.1 |
| 20260508203548 | 13 | 284 | 6.4 | 11.3 | 0.00 | 0.13 | 0.13 | 41 | 1010.1 |
| 20260508203028 | 13 | 233 | 3.2 | 9.7 | 0.00 | 0.13 | 0.13 | 48 | 1010.2 |
| 20260508202518 | 13 | 274 | 3.2 | 12.9 | 0.00 | 0.13 | 0.13 | 46 | 1010.3 |
| 20260508202046 | 13 | 279 | 3.2 | 12.9 | 0.00 | 0.13 | 0.13 | 48 | 1010.3 |
| 20260508201520 | 13 | 238 | 1.6 | 12.9 | 0.00 | 0.13 | 0.13 | 47 | 1010.3 |
| 20260508201030 | 13 | 264 | 4.8 | 12.9 | 0.00 | 0.13 | 0.13 | 48 | 1010.4 |
| 20260508200513 | 12 | 340 | 6.4 | 11.3 | 0.00 | 0.13 | 0.13 | 47 | 1010.4 |
| 20260508200037 | 13 | 264 | 1.6 | 8.0 | 0.00 | 0.13 | 0.13 | 47 | 1010.5 |
| 20260508195530 | 13 | 221 | 0.0 | 9.7 | 0.00 | 0.13 | 0.13 | 49 | 1010.5 |
| 20260508195018 | 13 | 263 | 3.2 | 11.3 | 0.00 | 0.13 | 0.13 | 49 | 1010.5 |
| 20260508194533 | 13 | 328 | 3.2 | 11.3 | 0.00 | 0.13 | 0.13 | 47 | 1010.6 |
| 20260508194031 | 13 | 295 | 3.2 | 14.5 | 0.00 | 0.13 | 0.13 | 47 | 1010.7 |
| 20260508193522 | 13 | 296 | 6.4 | 14.5 | 0.00 | 0.13 | 0.13 | 51 | 1010.8 |
| 20260508193032 | 13 | 254 | 8.0 | 12.9 | 0.00 | 0.13 | 0.13 | 50 | 1010.8 |
| 20260508192523 | 12 | 249 | 3.2 | 14.5 | 0.00 | 0.13 | 0.13 | 50 | 1010.9 |
| 20260508192032 | 12 | 258 | 3.2 | 14.5 | 0.00 | 0.13 | 0.13 | 49 | 1010.9 |
| 20260508191536 | 13 | 268 | 4.8 | 9.7 | 0.00 | 0.13 | 0.13 | 51 | 1011.0 |
| 20260508191041 | 12 | 201 | 3.2 | 14.5 | 0.00 | 0.13 | 0.13 | 49 | 1011.0 |
| 20260508190532 | 13 | 219 | 4.8 | 14.5 | 0.00 | 0.13 | 0.13 | 53 | 1011.0 |
| 20260508190023 | 13 | 269 | 3.2 | 14.5 | 0.00 | 0.13 | 0.13 | 52 | 1010.9 |
| 20260508185538 | 12 | 304 | 4.8 | 8.0 | 0.00 | 0.13 | 0.13 | 53 | 1010.9 |
| 20260508185027 | 12 | 203 | 3.2 | 8.0 | 0.00 | 0.13 | 0.13 | 52 | 1011.0 |
| 20260508184517 | 12 | 206 | 4.8 | 11.3 | 0.00 | 0.13 | 0.13 | 56 | 1011.1 |
| 20260508184029 | 13 | 194 | 4.8 | 11.3 | 0.00 | 0.13 | 0.13 | 56 | 1011.0 |
| 20260508183527 | 13 | 247 | 4.8 | 9.7 | 0.00 | 0.13 | 0.13 | 57 | 1011.1 |
| 20260508183035 | 13 | 203 | 4.8 | 11.3 | 0.00 | 0.13 | 0.13 | 59 | 1011.0 |
| 20260508182537 | 12 | 190 | 4.8 | 11.3 | 0.00 | 0.13 | 0.13 | 55 | 1011.0 |
| 20260508182015 | 12 | 148 | 3.2 | 8.0 | 0.00 | 0.13 | 0.13 | 58 | 1011.1 |
| 20260508181540 | 12 | 211 | 4.8 | 9.7 | 0.00 | 0.13 | 0.13 | 58 | 1011.2 |
| 20260508181034 | 12 | 209 | 3.2 | 11.3 | 0.00 | 0.13 | 0.13 | 58 | 1011.2 |
| 20260508180546 | 12 | 192 | 6.4 | 11.3 | 0.00 | 0.13 | 0.13 | 58 | 1011.2 |
| 20260508180044 | 12 | 213 | 4.8 | 8.0 | 0.00 | 0.13 | 0.13 | 59 | 1011.3 |
| 20260508175531 | 12 | 273 | 3.2 | 11.3 | 0.00 | 0.13 | 0.13 | 59 | 1011.3 |
| 20260508175043 | 12 | 209 | 4.8 | 16.1 | 0.00 | 0.13 | 0.13 | 59 | 1011.4 |
| 20260508174518 | 11 | 303 | 6.4 | 16.1 | 0.00 | 0.13 | 0.13 | 58 | 1011.5 |
| 20260508174047 | 11 | 196 | 4.8 | 11.3 | 0.00 | 0.13 | 0.13 | 59 | 1011.5 |
| 20260508173522 | 11 | 197 | 0.0 | 11.3 | 0.00 | 0.13 | 0.13 | 60 | 1011.6 |
| 20260508173056 | 11 | 197 | 3.2 | 14.5 | 0.00 | 0.13 | 0.13 | 62 | 1011.7 |
| 20260508172535 | 11 | 347 | 6.4 | 14.5 | 0.00 | 0.13 | 0.13 | 59 | 1011.7 |
| 20260508172038 | 11 | 225 | 8.0 | 12.9 | 0.00 | 0.13 | 0.13 | 59 | 1011.8 |
| 20260508171528 | 11 | 119 | 1.6 | 4.8 | 0.00 | 0.13 | 0.13 | 62 | 1011.8 |
| 20260508171018 | 11 | 94 | 1.6 | 8.0 | 0.00 | 0.13 | 0.13 | 60 | 1011.8 |
| 20260508170538 | 11 | 194 | 4.8 | 8.0 | 0.00 | 0.13 | 0.13 | 65 | 1011.9 |
| 20260508170020 | 11 | 186 | 4.8 | 9.7 | 0.00 | 0.13 | 0.13 | 63 | 1012.0 |
| 20260508165546 | 11 | 185 | 4.8 | 9.7 | 0.00 | 0.13 | 0.13 | 64 | 1012.0 |
| 20260508165029 | 11 | 203 | 3.2 | 9.7 | 0.00 | 0.13 | 0.13 | 66 | 1012.1 |
| 20260508164519 | 11 | 246 | 4.8 | 8.0 | 0.00 | 0.13 | 0.13 | 66 | 1012.1 |
| 20260508164039 | 11 | 235 | 4.8 | 9.7 | 0.00 | 0.13 | 0.13 | 69 | 1012.1 |
| 20260508163535 | 10 | 197 | 6.4 | 9.7 | 0.00 | 0.13 | 0.13 | 68 | 1012.2 |
| 20260508163029 | 11 | 195 | 6.4 | 12.9 | 0.00 | 0.13 | 0.13 | 67 | 1012.2 |
| 20260508162517 | 10 | 278 | 4.8 | 12.9 | 0.00 | 0.13 | 0.13 | 68 | 1012.2 |
| 20260508162034 | 10 | 203 | 6.4 | 11.3 | 0.00 | 0.13 | 0.13 | 67 | 1012.2 |
| 20260508161540 | 10 | 197 | 4.8 | 12.9 | 0.00 | 0.13 | 0.13 | 68 | 1012.4 |
| 20260508161048 | 10 | 210 | 4.8 | 12.9 | 0.00 | 0.13 | 0.13 | 68 | 1012.3 |
| 20260508160519 | 10 | 248 | 4.8 | 11.3 | 0.00 | 0.13 | 0.13 | 69 | 1012.4 |
| 20260508160016 | 10 | 198 | 6.4 | 11.3 | 0.00 | 0.13 | 0.13 | 72 | 1012.3 |
| 20260508155515 | 10 | 221 | 4.8 | 11.3 | 0.00 | 0.13 | 0.13 | 71 | 1012.4 |
| 20260508155035 | 10 | 188 | 8.0 | 12.9 | 0.00 | 0.13 | 0.13 | 71 | 1012.3 |
| 20260508154529 | 10 | 203 | 8.0 | 9.7 | 0.00 | 0.13 | 0.13 | 73 | 1012.2 |
| 20260508154044 | 10 | 263 | 4.8 | 11.3 | 0.00 | 0.13 | 0.13 | 72 | 1012.2 |
| 20260508153540 | 10 | 206 | 4.8 | 11.3 | 0.00 | 0.13 | 0.13 | 75 | 1012.2 |
| 20260508153053 | 9 | 200 | 3.2 | 11.3 | 0.00 | 0.13 | 0.13 | 74 | 1012.2 |
| 20260508152537 | 9 | 200 | 4.8 | 11.3 | 0.00 | 0.13 | 0.13 | 74 | 1012.3 |
| 20260508152045 | 10 | 217 | 3.2 | 11.3 | 0.00 | 0.13 | 0.13 | 77 | 1012.2 |
| 20260508151540 | 9 | 197 | 6.4 | 11.3 | 0.00 | 0.13 | 0.13 | 77 | 1012.2 |
| 20260508151017 | 8 | 198 | 4.8 | 9.7 | 0.00 | 0.13 | 0.13 | 79 | 1012.1 |
| 20260508150517 | 8 | 187 | 1.6 | 8.0 | 0.00 | 0.13 | 0.13 | 81 | 1012.1 |
| 20260508150033 | 7 | 197 | 4.8 | 8.0 | 0.00 | 0.13 | 0.13 | 83 | 1012.2 |
| 20260508145523 | 7 | 196 | 3.2 | 8.0 | 0.00 | 0.13 | 0.13 | 83 | 1012.3 |
| 20260508145033 | 7 | 261 | 0.0 | 8.0 | 0.00 | 0.13 | 0.13 | 83 | 1012.4 |
| 20260508144517 | 7 | 261 | 1.6 | 8.0 | 0.00 | 0.13 | 0.13 | 83 | 1012.4 |
| 20260508144036 | 7 | 199 | 0.0 | 0.0 | 0.00 | 0.13 | 0.13 | 84 | 1012.4 |
| 20260508143549 | 7 | 199 | 0.0 | 6.4 | 0.00 | 0.13 | 0.13 | 85 | 1012.4 |
| 20260508143018 | 6 | 199 | 0.0 | 6.4 | 0.00 | 0.13 | 0.13 | 86 | 1012.5 |
| 20260508142542 | 6 | 199 | 3.2 | 6.4 | 0.00 | 0.13 | 0.13 | 86 | 1012.6 |
| 20260508142030 | 6 | 213 | 0.0 | 1.6 | 0.00 | 0.13 | 0.13 | 86 | 1012.5 |
| 20260508141538 | 6 | 271 | 0.0 | 4.8 | 0.00 | 0.13 | 0.13 | 86 | 1012.5 |
| 20260508141045 | 6 | 271 | 1.6 | 8.0 | 0.03 | 0.13 | 0.13 | 86 | 1012.5 |
| 20260508140519 | 6 | 267 | 1.6 | 8.0 | 0.03 | 0.13 | 0.13 | 87 | 1012.5 |
| 20260508140048 | 6 | 190 | 0.0 | 1.6 | 0.03 | 0.13 | 0.13 | 87 | 1012.5 |
| 20260508135542 | 6 | 290 | 0.0 | 9.7 | 0.05 | 0.13 | 0.13 | 88 | 1012.4 |
| 20260508135033 | 6 | 267 | 3.2 | 9.7 | 0.05 | 0.13 | 0.13 | 88 | 1012.4 |
| 20260508134518 | 6 | 273 | 3.2 | 8.0 | 0.05 | 0.13 | 0.13 | 89 | 1012.5 |
| 20260508134036 | 6 | 302 | 3.2 | 8.0 | 0.05 | 0.13 | 0.13 | 88 | 1012.5 |
| 20260508133535 | 6 | 260 | 4.8 | 8.0 | 0.05 | 0.13 | 0.13 | 89 | 1012.5 |
| 20260508133041 | 6 | 264 | 3.2 | 8.0 | 0.08 | 0.13 | 0.13 | 89 | 1012.5 |
| 20260508132609 | 6 | 209 | 4.8 | 8.0 | 0.08 | 0.13 | 0.13 | 89 | 1012.5 |
| 20260508132045 | 6 | 267 | 1.6 | 11.3 | 0.08 | 0.13 | 0.13 | 89 | 1012.5 |
| 20260508131532 | 5 | 258 | 1.6 | 11.3 | 0.08 | 0.13 | 0.13 | 89 | 1012.4 |
| 20260508131053 | 5 | 250 | 3.2 | 12.9 | 0.05 | 0.10 | 0.10 | 89 | 1012.4 |
| 20260508130522 | 5 | 290 | 4.8 | 17.7 | 0.05 | 0.10 | 0.10 | 89 | 1012.4 |
| 20260508130037 | 5 | 298 | 6.4 | 17.7 | 0.05 | 0.10 | 0.10 | 89 | 1012.5 |
| 20260508125525 | 5 | 280 | 4.8 | 14.5 | 0.03 | 0.08 | 0.08 | 90 | 1012.4 |
| 20260508125019 | 5 | 273 | 6.4 | 14.5 | 0.03 | 0.08 | 0.08 | 90 | 1012.3 |
| 20260508124528 | 5 | 275 | 0.0 | 8.0 | 0.03 | 0.08 | 0.08 | 91 | 1012.3 |
| 20260508124053 | 5 | 276 | 3.2 | 8.0 | 0.03 | 0.08 | 0.08 | 91 | 1012.2 |
| 20260508123545 | 5 | 260 | 3.2 | 6.4 | 0.03 | 0.08 | 0.08 | 92 | 1012.1 |
| 20260508123026 | 5 | 181 | 0.0 | 4.8 | 0.00 | 0.05 | 0.05 | 92 | 1011.9 |
| 20260508122528 | 5 | 181 | 1.6 | 6.4 | 0.00 | 0.05 | 0.05 | 92 | 1011.9 |
| 20260508122026 | 5 | 219 | 1.6 | 6.4 | 0.00 | 0.05 | 0.05 | 92 | 1011.8 |
| 20260508121546 | 5 | 196 | 1.6 | 4.8 | 0.00 | 0.05 | 0.05 | 92 | 1011.8 |
| 20260508121016 | 5 | 196 | 0.0 | 3.2 | 0.00 | 0.05 | 0.05 | 92 | 1011.6 |
| 20260508120540 | 5 | 196 | 0.0 | 0.0 | 0.00 | 0.05 | 0.05 | 92 | 1011.3 |
| 20260508120017 | 5 | 196 | 0.0 | 0.0 | 0.00 | 0.05 | 0.05 | 92 | 1011.3 |
| 20260508115518 | 5 | 196 | 0.0 | 0.0 | 0.00 | 0.05 | 0.05 | 92 | 1011.3 |
| 20260508115030 | 5 | 196 | 0.0 | 0.0 | 0.00 | 0.05 | 0.05 | 92 | 1011.3 |
| 20260508114541 | 5 | 196 | 0.0 | 0.0 | 0.00 | 0.05 | 0.05 | 92 | 1011.3 |
| 20260508114020 | 5 | 196 | 0.0 | 1.6 | 0.00 | 0.05 | 0.05 | 92 | 1011.2 |
| 20260508113033 | 4 | 186 | 0.0 | 0.0 | 0.00 | 0.05 | 0.05 | 92 | 1011.1 |
| 20260508112517 | 4 | 186 | 0.0 | 0.0 | 0.00 | 0.05 | 0.05 | 92 | 1011.0 |
| 20260508112036 | 4 | 186 | 0.0 | 0.0 | 0.00 | 0.05 | 0.05 | 92 | 1011.1 |
| 20260508111552 | 4 | 148 | 0.0 | 0.0 | 0.00 | 0.05 | 0.05 | 92 | 1011.0 |
| 20260508111023 | 4 | 148 | 0.0 | 0.0 | 0.00 | 0.05 | 0.05 | 91 | 1010.8 |
| 20260508110521 | 4 | 148 | 0.0 | 0.0 | 0.00 | 0.05 | 0.05 | 91 | 1010.9 |
| 20260508110023 | 4 | 148 | 0.0 | 0.0 | 0.00 | 0.05 | 0.05 | 91 | 1010.9 |
| 20260508105549 | 4 | 148 | 0.0 | 0.0 | 0.00 | 0.05 | 0.05 | 91 | 1010.8 |
| 20260508105018 | 3 | 148 | 0.0 | 0.0 | 0.00 | 0.05 | 0.05 | 91 | 1010.7 |
| 20260508104515 | 3 | 148 | 0.0 | 0.0 | 0.00 | 0.05 | 0.05 | 91 | 1010.6 |
| 20260508104033 | 3 | 150 | 0.0 | 0.0 | 0.00 | 0.05 | 0.05 | 91 | 1010.6 |
| 20260508103531 | 3 | 150 | 0.0 | 0.0 | 0.00 | 0.05 | 0.05 | 90 | 1010.8 |
| 20260508103035 | 3 | 150 | 0.0 | 0.0 | 0.00 | 0.05 | 0.05 | 90 | 1010.8 |
| 20260508102524 | 3 | 138 | 0.0 | 0.0 | 0.00 | 0.05 | 0.05 | 90 | 1010.9 |
| 20260508102032 | 3 | 138 | 0.0 | 0.0 | 0.00 | 0.05 | 0.05 | 90 | 1010.9 |
| 20260508101549 | 3 | 138 | 0.0 | 0.0 | 0.00 | 0.05 | 0.05 | 90 | 1010.9 |
| 20260508101037 | 3 | 137 | 0.0 | 0.0 | 0.00 | 0.05 | 0.05 | 90 | 1011.0 |
| 20260508100539 | 3 | 156 | 0.0 | 0.0 | 0.00 | 0.05 | 0.05 | 90 | 1011.1 |
| 20260508100039 | 3 | 260 | 0.0 | 0.0 | 0.00 | 0.05 | 0.05 | 90 | 1011.1 |
| 20260508095516 | 3 | 260 | 0.0 | 0.0 | 0.00 | 0.05 | 0.05 | 90 | 1011.2 |
| 20260508095047 | 3 | 260 | 0.0 | 0.0 | 0.00 | 0.05 | 0.05 | 90 | 1011.2 |
| 20260508094517 | 3 | 260 | 0.0 | 0.0 | 0.00 | 0.05 | 0.05 | 90 | 1011.3 |
| 20260508094024 | 3 | 260 | 0.0 | 0.0 | 0.00 | 0.05 | 0.05 | 89 | 1011.2 |
| 20260508093545 | 3 | 260 | 0.0 | 0.0 | 0.00 | 0.05 | 0.05 | 89 | 1011.2 |
| 20260508093028 | 3 | 260 | 0.0 | 0.0 | 0.00 | 0.05 | 0.05 | 90 | 1011.2 |
| 20260508092534 | 3 | 260 | 0.0 | 0.0 | 0.00 | 0.05 | 0.05 | 89 | 1011.3 |
| 20260508092040 | 3 | 260 | 0.0 | 0.0 | 0.00 | 0.05 | 0.05 | 89 | 1011.3 |
| 20260508091514 | 3 | 260 | 0.0 | 0.0 | 0.00 | 0.05 | 0.05 | 89 | 1011.3 |
| 20260508091043 | 3 | 260 | 0.0 | 0.0 | 0.00 | 0.05 | 0.05 | 89 | 1011.2 |